Погода Красная Поляна

Погода Красная Поляна : погода сейчас, прогноз погоды и архив. Всё, что Вы хотите узнать о погоде Красная Поляна!

Поиск расширенной информации на нашем сайте:

Другие новости

Новости СМИ2

Главная страница сайта

Новости сайта

03.07.2017

Напоминаем, что на нашем специализированном сайте Метеоцентр.Азия вы можете получить высокодетализированные автоматические прогнозы погоды по пунктам России, СНГ и мира в авиационном формате (включающие направление и скорость ветра, видимость, явления погоды, количество и форму облачности, нижнюю и верхнюю границу облачности).


Погода Красная Поляна - сегодня

Время (UTC), дата Ветер
(°,м/с) 
Видим.   Явления Облачность Т
(°С)
Тd
(°С)
f(%) Тe
(°С)
Pmin
(гПа)
dP
(гПа)
Po
(мм)
O2
(г/м3)
Тmin Tmax R s Состояние
почвы
15 17.10.17 350 (С) 20000 м    10/10 1500 м 
[Sc]
+9.9 +7.7 86 +11  1026.5  720  278    +14.5       
18 17.10.17 020 (С) 20000 м    8/6 1300 м средняя 
[Sc|Ac As]
+8.8 +7.3 90 +10  1027.4  0.6  720  280           
21 17.10.17 040 (СВ) 20000 м    8/5 1000 м средняя 
[Sc|Ac As]
+6.6 +5.5 93 +8  1028.1  0.1  720  282           
00 18.10.17 090 (В) 20000 м    10/10 1500 м 
[Sc]
+6.3 +5.6 95 +7  1028.1  -0.1  720  283           
03 18.10.17 100 (В) 20000 м    10/10 1470 м 
[Sc]
+6.6 +5.9 95 +8  1027.6  -0.4  720  282  +5.5        влажная 
06 18.10.17 150 (ЮВ) 20000 м    8/3 1500 м средняя, верхняя 
[Cu hum|Ac cast|Ci fib]
+9.8 +6.1 78 +11  1026.4  -0.4  719  279           
09 18.10.17 200 (Ю) 20000 м    9/0 верхняя 
[Cs]
+14.4 +7.2 62 +16  1024.3  -0.9  719  274           
12 18.10.17 230 (ЮЗ) 20000 м    9/3 960 м средняя, верхняя 
[Sc|Ac cast|Cs]
+14 +9 72 +16  1023.5  -0.8  718  274           
15 18.10.17 тихо ()   17000 м    10/4 1000 м средняя, верхняя 
[Sc|Ac cast|Cs]
+10 +9.2 95 +11  1025  0.5  719  278    +15.3       
18 18.10.17 030 (СВ) 19000 м    10/5 480 м верхняя 
[Sc|Cs]
+9.3 +8.7 96 +10  1025.6  0.4  719  278           
21 18.10.17 тихо ()   20000 м    6/0 верхняя 
[Cs]
+7.7 +7 95 +8  1025.3  -0.7  718  280           
00 19.10.17 070 (В) 19000 м    8/0 верхняя 
[Cs]
+6 +6 100 +7  1025.7  718  282           
03 19.10.17 090 (В) 20000 м    9/0 верхняя 
[Cs]
+5.6 +5.6 100 +6  1025.5  -0.3  718  283  +5.4        влажная 
06 19.10.17 130 (ЮВ) 20000 м    3/0 верхняя 
[Cs]
+8.5 +6.5 87 +10  1024.7  718  279           
09 19.10.17 220 (ЮЗ) 20000 м    3/0 верхняя 
[Cs]
+14.8 +7.8 63 +16  1021.7  -1.4  717  273           
12 19.10.17 310 (СЗ) 20000 м    ясно 
+17.5 +8.4 55 +19  1019.7  -1.3  716  270           
15 19.10.17 010 (С) 20000 м    ясно 
+12.3 +8.8 79 +14  1021  0.1  716  274    +19.2       
18 19.10.17 060 (СВ) 12000 м    ясно 
+9.7 +8 89 +11  1022  0.3  716  277           
21 19.10.17 040 (СВ) 20000 м    ясно 
+8.3 +7.1 92 +9  1022  -0.3  716  279           
00 20.10.17 080 (В) 20000 м    ясно 
+6.7 +6.4 98 +8  1021.8  -0.6  716  280           
03 20.10.17 090 (В) 20000 м    ясно 
+6.3 +5.7 96 +7  1021.9  716  281  +5.9        влажная 
06 20.10.17 130 (ЮВ) 18000 м    ясно 
+10.7 +7 78 +12  1021  0.2  716  276           
09 20.10.17 220 (ЮЗ) 20000 м    ясно 
+17.1 +7.5 53 +18  1018.2  -1.2  715  270           
12 20.10.17 220 (ЮЗ) 20000 м    ясно 
+18.9 +9.7 55 +22  1016.9  -0.8  714  267           
15 20.10.17 020 (С) 19000 м    ясно 
+13 +10.4 84 +16  1019.2  0.9  715  273    +19.3       
Время (UTC), дата Ветер
(°,м/с) 
Видим.   Явления Облачность Т
(°С)
Тd
(°С)
f(%) Тe
(°С)
Pmin
(гПа)
dP
(гПа)
Po
(мм)
O2
(г/м3)
Тmin Tmax R s Состояние
почвы

Для получения пояснительной информации подведите курсор к названию столбца.

ПОГОДА Красная Поляна - архив

Всё, что Вы хотите узнать о погоде Красная Поляна - удобно и подробно!

Выберите нужную дату (начиная с 1 января 2015* года) и нажмите кнопку "Найти".
Будут отображены архивные сводки погоды по пункту Красная Поляна, начиная с указанной даты.


Отображать данные в формате CSV (для использования в таблицах Excel)


Внимание! Наш архив погоды предназначен исключительно для личного некоммерческого использования в познавательных целях. Если Вам необходимы официальные справки о состоянии погоды (для производственных, юридических, коммерческих и т.п. целей), обращайтесь в органы Росгидромета.

*Примечание: данная дата относится к архиву по метеостанциям СССР (Россия, СНГ, Балтия).
Архив по метеостанциям Зарубежной Европы и Азии (кроме Китая) хранится 10 дней, по другим регионам земного шара (Китай, Африка, Америка, Австралия, Океания) - 1 день.

Красная Поляна - район местоположения метеостанции


Название, широта, долгота, высота метеостанции:
Красная Поляна 43.7°ш. 40.2°д. 568 м над ур. моря [Российская Федерация]

Дополнительная информация

В oтличие oт бoльшинства пoгoдных сайтoв мы публикуем пoдрoбную метеoинфoрмацию в детальнoм прoфессиoнальнoм фoрмате.

Характеристики температуры и влажнoсти вoздуха измеряются на высoте 2 м в тени вдали oт зданий и деревьев.
Скoрoсть ветра измеряется на высoте 10 м (на урoвне рoста челoвека скoрoсть ветра ниже в 1.5-2 раза). Если метеoстанция нахoдится в гoрoде или в лесу, тo скoрoсть ветра занижена на 2-4 м/с пo сравнению с oткрытым местoм. Скoрoсть ветра над акватoриями крупных рек и oзёр, а также на вершинах хoлмoв на 2-5 м/с выше, чем в oбычных услoвиях.
Атмoсфернoе давление в разных тoчках местнoсти мoжет значительнo oтличаться oт давления на метеoстанции, в зависимoсти oт услoвий рельефа (при пoдъёме на 10 м давление пoнижается примернo на 1 мм рт.ст.).